FW1757 Weather Reports


Display with metric or nautical units.
time (UTC)temp
F
wind
direction
speed
MPH
gust
MPH
rain 1hr
in
rain 24hr
in
rain mn
in
humidity
%
barometer
mb
20260507105036 55 281 0.0 0.0 0.00 0.00 0.00 65 1015.7
20260507104533 55 300 0.0 0.0 0.00 0.00 0.00 65 1015.7
20260507104033 55 213 0.0 0.0 0.00 0.00 0.00 65 1015.6
20260507103535 55 273 0.0 0.0 0.00 0.00 0.00 65 1015.6
20260507103034 55 245 0.0 0.0 0.00 0.00 0.00 65 1015.7
20260507102532 55 257 0.0 0.0 0.00 0.00 0.00 65 1015.5
20260507102031 55 232 0.0 0.0 0.00 0.00 0.00 64 1015.4
20260507101532 55 298 0.0 0.0 0.00 0.00 0.00 64 1015.6
20260507101030 55 267 0.0 0.0 0.00 0.00 0.00 64 1015.6
20260507100530 55 302 0.0 0.0 0.00 0.00 0.00 64 1015.7
20260507100035 56 267 0.0 0.0 0.00 0.00 0.00 64 1015.6
20260507095529 56 287 0.0 0.0 0.00 0.00 0.00 64 1015.5
20260507095029 56 314 0.0 0.0 0.00 0.00 0.00 64 1015.5
20260507094527 56 286 0.0 0.0 0.00 0.00 0.00 65 1015.6
20260507094027 56 322 0.0 0.0 0.00 0.00 0.00 65 1015.5
20260507093626 56 279 0.0 0.0 0.00 0.00 0.00 65 1015.6
20260507093025 56 239 0.0 0.0 0.00 0.00 0.00 65 1015.6
20260507092525 57 263 0.0 0.0 0.00 0.00 0.00 65 1015.7
20260507092024 57 298 0.0 0.0 0.00 0.00 0.00 65 1015.6
20260507091524 57 263 0.0 0.0 0.00 0.00 0.00 65 1015.7
20260507091024 57 263 0.0 0.0 0.00 0.00 0.00 66 1015.6
20260507090524 57 302 0.0 0.0 0.00 0.00 0.00 65 1015.7
20260507090023 57 260 0.0 0.0 0.00 0.00 0.00 66 1015.8
20260507085523 57 259 0.0 0.0 0.00 0.00 0.00 65 1015.8
20260507085023 57 270 0.0 0.0 0.00 0.00 0.00 65 1015.8
20260507084524 57 281 0.0 0.0 0.00 0.00 0.00 65 1015.9
20260507084022 57 257 0.0 0.0 0.00 0.00 0.00 65 1015.9
20260507083522 57 306 0.0 0.0 0.00 0.00 0.00 65 1015.8
20260507083023 57 313 0.0 0.0 0.00 0.00 0.00 65 1015.8
20260507082521 57 281 0.0 0.0 0.00 0.00 0.00 65 1015.7
20260507082019 58 265 0.0 0.0 0.00 0.00 0.00 65 1015.6
20260507081534 58 279 0.0 0.0 0.00 0.00 0.00 65 1015.5
20260507081019 58 300 0.0 0.0 0.00 0.00 0.00 66 1015.5
20260507080520 58 313 0.0 0.0 0.00 0.00 0.00 66 1015.3
20260507080016 58 266 0.0 0.0 0.00 0.00 0.00 66 1015.3
20260507075519 58 300 0.0 0.0 0.00 0.00 0.00 66 1015.3
20260507075015 58 228 0.0 0.0 0.00 0.00 0.00 66 1015.1
20260507074524 58 269 0.0 0.0 0.00 0.00 0.00 66 1015.2
20260507074014 58 309 0.0 0.0 0.00 0.00 0.00 66 1015.1
20260507073516 59 281 0.0 0.0 0.00 0.00 0.00 66 1015.0
20260507073013 59 296 0.0 0.0 0.00 0.00 0.00 66 1014.8
20260507072512 59 270 0.0 0.0 0.00 0.00 0.00 66 1014.9
20260507072012 59 228 0.0 0.0 0.00 0.00 0.00 66 1014.8
20260507071511 59 255 0.0 0.0 0.00 0.00 0.00 66 1014.9
20260507071012 59 292 0.0 0.0 0.00 0.00 0.00 66 1014.8
20260507070510 59 290 0.0 0.0 0.00 0.00 0.00 66 1015.1
20260507070017 59 286 0.0 0.0 0.00 0.00 0.00 66 1015.0
20260507065510 59 278 0.0 0.0 0.00 0.00 0.00 66 1015.2
20260507065009 59 260 0.0 0.0 0.00 0.00 0.00 66 1015.1
20260507064508 60 288 0.0 0.0 0.00 0.00 0.00 66 1015.1
20260507064008 60 330 0.0 0.0 0.00 0.00 0.00 66 1015.2
20260507063509 60 246 0.0 0.0 0.00 0.00 0.00 66 1015.3
20260507063014 60 289 0.0 0.0 0.00 0.00 0.00 66 1015.3
20260507062507 60 292 0.0 0.0 0.00 0.00 0.00 66 1015.2
20260507062007 60 290 0.0 0.0 0.00 0.00 0.00 66 1015.3
20260507061507 60 287 0.0 0.0 0.00 0.00 0.00 67 1015.3
20260507061006 60 268 0.0 0.0 0.00 0.00 0.00 67 1015.3
20260507060508 60 316 0.0 0.0 0.00 0.00 0.00 67 1015.3
20260507060006 61 319 0.0 0.0 0.00 0.00 0.00 67 1015.3
20260507055506 61 292 0.0 0.0 0.00 0.00 0.00 67 1015.3
20260507055005 61 302 0.0 0.0 0.00 0.00 0.00 67 1015.3
20260507054505 61 294 0.0 0.0 0.00 0.00 0.00 67 1015.2
20260507054008 61 269 0.0 0.0 0.00 0.00 0.00 67 1015.3
20260507053507 61 310 0.0 0.0 0.00 0.00 0.00 67 1015.2
20260507053005 61 250 0.0 0.0 0.00 0.00 0.00 67 1015.3
20260507052504 61 298 0.0 0.0 0.00 0.00 0.00 67 1015.0
20260507052006 61 273 0.0 0.0 0.00 0.00 0.00 67 1015.1
20260507051504 61 339 0.0 0.0 0.00 0.00 0.00 67 1015.0
20260507051008 61 294 0.0 0.0 0.00 0.00 0.00 67 1015.0
20260507050504 61 257 0.0 0.0 0.00 0.00 0.00 67 1015.0
20260507050013 61 97 0.0 0.0 0.00 0.00 0.00 67 1014.9
20260507045505 61 240 0.0 0.0 0.00 0.00 0.00 67 1014.9
20260507045004 61 351 0.0 0.0 0.00 0.00 0.00 67 1015.0
20260507044503 61 252 0.0 0.0 0.00 0.00 0.00 67 1015.0
20260507044003 62 289 0.0 0.0 0.00 0.00 0.00 67 1015.0
20260507043502 62 288 0.0 0.0 0.00 0.00 0.00 67 1015.2
20260507043003 62 277 0.0 0.0 0.00 0.00 0.00 67 1015.2
20260507042502 62 294 0.0 0.0 0.00 0.00 0.00 67 1015.1
20260507042002 62 291 0.0 0.0 0.00 0.00 0.00 67 1015.1
20260507041502 62 269 0.0 0.0 0.00 0.00 0.00 67 1015.1
20260507041002 62 286 0.0 0.0 0.00 0.00 0.00 67 1015.0
20260507040502 62 301 0.0 0.0 0.00 0.00 0.00 67 1015.0
20260507040005 62 294 0.0 0.0 0.00 0.00 0.00 66 1014.7
20260507035502 62 328 0.0 0.0 0.00 0.00 0.00 66 1014.7
20260507035001 62 284 0.0 0.0 0.00 0.00 0.00 66 1014.9
20260507034500 62 275 0.0 0.0 0.00 0.00 0.00 66 1014.9
20260507034001 63 290 0.0 0.0 0.00 0.00 0.00 66 1015.0
20260507033600 63 284 0.0 0.0 0.00 0.00 0.00 65 1015.1
20260507033106 63 292 0.0 0.0 0.00 0.00 0.00 64 1015.0
20260507032602 63 288 0.0 0.0 0.00 0.00 0.00 63 1015.2
20260507032100 64 282 0.0 0.0 0.00 0.00 0.00 61 1015.1
20260507031609 64 265 0.0 0.0 0.00 0.00 0.00 60 1015.1
20260507031100 64 262 0.0 0.0 0.00 0.00 0.00 59 1015.2
20260507030559 65 275 0.0 0.0 0.00 0.00 0.00 59 1015.2
20260507030101 65 256 0.0 0.0 0.00 0.00 0.00 58 1015.1
20260507025602 65 316 0.0 0.0 0.00 0.00 0.00 57 1015.1
20260507025059 65 296 0.0 0.0 0.00 0.00 0.00 56 1015.2
20260507024559 66 275 0.0 0.0 0.00 0.00 0.00 56 1015.1
20260507024059 66 309 0.0 0.0 0.00 0.00 0.00 56 1015.2
20260507023558 66 296 0.0 0.0 0.00 0.00 0.00 55 1015.3
20260507023106 66 258 0.0 0.0 0.00 0.00 0.00 56 1015.4
20260507022558 66 294 0.0 0.0 0.00 0.00 0.00 56 1015.3
20260507022058 66 279 0.0 0.0 0.00 0.00 0.00 55 1015.3
20260507021601 66 298 0.0 0.0 0.00 0.00 0.00 56 1015.2
20260507021058 66 279 0.0 0.0 0.00 0.00 0.00 56 1015.3
20260507020557 67 264 0.0 0.0 0.00 0.00 0.00 56 1015.0
20260507020100 67 296 0.0 0.0 0.00 0.00 0.00 55 1015.3
20260507015557 66 273 0.0 0.0 0.00 0.00 0.00 57 1015.2
20260507015056 66 301 0.0 0.0 0.00 0.00 0.00 56 1015.2
20260507014604 66 302 0.0 0.0 0.00 0.00 0.00 56 1015.1
20260507014057 66 261 0.0 0.0 0.00 0.00 0.00 56 1014.9
20260507013556 66 272 0.0 0.0 0.00 0.00 0.00 56 1015.0
20260507013055 66 310 0.0 0.0 0.00 0.00 0.00 56 1014.9
20260507012555 66 300 0.0 0.0 0.00 0.00 0.00 56 1014.9
20260507012100 66 290 0.0 0.0 0.00 0.00 0.00 56 1015.0
20260507011555 66 279 0.0 0.0 0.00 0.00 0.00 57 1015.0
20260507011059 66 275 0.0 0.0 0.00 0.00 0.00 56 1014.8
20260507010555 66 237 0.0 0.0 0.00 0.00 0.00 56 1015.0
20260507010059 66 256 0.0 0.0 0.00 0.00 0.00 57 1015.1
20260507005555 66 292 0.0 0.0 0.00 0.00 0.00 57 1015.0
20260507005054 66 281 0.0 0.0 0.00 0.00 0.00 58 1015.0
20260507004554 66 270 0.0 0.0 0.00 0.00 0.00 57 1014.8
20260507004054 66 264 0.0 0.0 0.00 0.00 0.00 58 1014.8
20260507003554 66 319 0.0 0.0 0.00 0.00 0.00 58 1014.8
20260507003054 66 303 0.0 0.0 0.00 0.00 0.00 58 1014.7
20260507002553 67 256 0.0 0.0 0.00 0.00 0.00 57 1014.8
20260507002053 67 271 0.0 0.0 0.00 0.00 0.00 57 1014.6
20260507001601 67 309 0.0 0.0 0.00 0.00 0.00 57 1014.6
20260507001052 67 303 0.0 0.0 0.00 0.00 0.00 56 1014.6
20260507000553 68 292 0.0 0.0 0.00 0.00 0.00 55 1014.6
20260507000054 68 294 0.0 0.0 0.00 0.00 0.00 56 1014.5
20260506235555 68 223 0.0 0.0 0.00 0.00 0.00 55 1014.5
20260506235055 68 288 0.0 0.0 0.00 0.00 0.00 55 1014.5
20260506234553 68 289 0.0 0.0 0.00 0.00 0.00 55 1014.5
20260506234052 68 278 0.0 0.0 0.00 0.00 0.00 55 1014.4
20260506233551 68 331 0.0 0.0 0.00 0.00 0.00 55 1014.3
20260506233109 69 287 0.0 0.0 0.00 0.00 0.00 54 1014.4
20260506232551 69 284 0.0 0.0 0.00 0.00 0.00 55 1014.4
20260506232051 69 325 0.0 0.0 0.00 0.00 0.00 54 1014.2
20260506231551 69 286 0.0 0.0 0.00 0.00 0.00 54 1014.2
20260506231051 69 315 0.0 0.0 0.00 0.00 0.00 53 1014.2
20260506230550 69 257 0.0 0.0 0.00 0.00 0.00 52 1014.2
20260506230051 70 271 0.0 0.0 0.00 0.00 0.00 51 1014.2
20260506225650 70 306 0.0 0.0 0.00 0.00 0.00 51 1014.1
20260506225050 71 313 0.0 0.0 0.00 0.00 0.00 51 1014.2
20260506224550 70 267 0.0 0.0 0.00 0.00 0.00 52 1014.3
20260506224052 70 290 0.0 0.0 0.00 0.00 0.00 51 1014.3
20260506223550 70 282 0.0 0.0 0.00 0.00 0.00 51 1014.3
20260506223048 71 255 0.0 0.0 0.00 0.00 0.00 50 1014.5
20260506222548 71 279 0.0 0.0 0.00 0.00 0.00 51 1014.4
20260506222048 71 259 0.0 0.0 0.00 0.00 0.00 51 1014.6
20260506221547 71 300 0.0 0.0 0.00 0.00 0.00 52 1014.7
20260506221046 71 297 0.0 0.0 0.00 0.00 0.00 51 1014.7
20260506220546 70 252 0.0 0.0 0.00 0.00 0.00 54 1015.0
20260506220046 69 271 0.0 0.0 0.00 0.00 0.00 56 1015.1
20260506215549 69 292 0.0 0.0 0.00 0.00 0.00 55 1015.2
20260506215045 68 237 0.0 0.0 0.00 0.00 0.00 55 1015.2
20260506214546 68 240 0.0 0.0 0.00 0.00 0.00 55 1015.2
20260506214046 68 284 0.0 0.0 0.00 0.00 0.00 54 1015.4
20260506213544 69 278 0.0 0.0 0.00 0.00 0.00 53 1015.3
20260506213058 69 330 0.0 0.0 0.00 0.00 0.00 52 1015.3
20260506212544 69 288 0.0 0.0 0.00 0.00 0.00 52 1015.3
20260506212045 69 277 0.0 0.0 0.00 0.00 0.00 52 1015.2
20260506211544 69 291 0.0 0.0 0.00 0.00 0.00 53 1015.4
20260506211044 70 301 0.0 0.0 0.00 0.00 0.00 51 1015.4
20260506210544 70 269 0.0 0.0 0.00 0.00 0.00 50 1015.5
20260506210043 70 259 0.0 0.0 0.00 0.00 0.00 52 1015.5
20260506205544 70 269 0.0 0.0 0.00 0.00 0.00 55 1015.7
20260506205043 70 319 0.0 0.0 0.00 0.00 0.00 52 1015.6
20260506204548 70 232 0.0 0.0 0.00 0.00 0.00 53 1015.7
20260506204041 70 269 0.0 0.0 0.00 0.00 0.00 54 1015.8
20260506203540 70 327 0.0 0.0 0.00 0.00 0.00 54 1015.8
20260506203039 70 304 0.0 0.0 0.00 0.00 0.00 55 1016.0
20260506202541 69 269 0.0 0.0 0.00 0.00 0.00 56 1016.0
20260506202037 69 234 0.0 0.0 0.00 0.00 0.00 55 1016.0
20260506201537 69 248 0.0 0.0 0.00 0.00 0.00 55 1015.8
20260506201036 69 255 0.0 0.0 0.00 0.00 0.00 55 1015.9
20260506200535 69 258 0.0 0.0 0.00 0.00 0.00 56 1015.8
20260506200035 69 272 0.0 0.0 0.00 0.00 0.00 57 1015.7
20260506195534 68 298 0.0 0.0 0.00 0.00 0.00 57 1015.7
20260506195037 68 257 0.0 0.0 0.00 0.00 0.00 57 1015.4
20260506194537 68 291 0.0 0.0 0.00 0.00 0.00 56 1015.5
20260506194031 68 286 0.0 0.0 0.00 0.00 0.00 58 1015.4
20260506193530 68 283 0.0 0.0 0.00 0.00 0.00 58 1015.5
20260506193032 67 286 0.0 0.0 0.00 0.00 0.00 59 1015.2
20260506192531 67 269 0.0 0.0 0.00 0.00 0.00 60 1015.1
20260506192027 67 267 0.0 0.0 0.00 0.00 0.00 60 1015.3
20260506191526 66 303 0.0 0.0 0.00 0.00 0.00 60 1015.2
20260506191027 66 290 0.0 0.0 0.00 0.00 0.00 60 1015.2
20260506190524 66 281 0.0 0.0 0.00 0.00 0.00 60 1015.3
20260506190025 66 276 0.0 0.0 0.00 0.00 0.00 60 1015.2
20260506185525 66 298 0.0 0.0 0.00 0.00 0.00 60 1015.2
20260506185026 66 299 0.0 0.0 0.00 0.00 0.00 62 1015.2
20260506184525 66 264 0.0 0.0 0.00 0.00 0.00 61 1015.1
20260506184023 66 342 0.0 0.0 0.00 0.00 0.00 61 1015.4
20260506183523 66 300 0.0 0.0 0.00 0.00 0.00 61 1015.6
20260506183022 66 275 0.0 0.0 0.00 0.00 0.00 62 1015.6
20260506182521 65 300 0.0 0.0 0.00 0.00 0.00 63 1015.6
20260506182022 65 304 0.0 0.0 0.00 0.00 0.00 63 1015.7
20260506181519 65 290 0.0 0.0 0.00 0.00 0.00 64 1015.9
20260506181020 65 267 0.0 0.0 0.00 0.00 0.00 65 1016.0
20260506180519 65 294 0.0 0.0 0.00 0.00 0.00 64 1016.1
20260506180018 65 250 0.0 0.0 0.00 0.00 0.00 65 1016.1
20260506175517 65 309 0.0 0.0 0.00 0.00 0.00 64 1016.1
20260506175019 65 275 0.0 0.0 0.00 0.00 0.00 64 1016.0
20260506174516 64 287 0.0 0.0 0.00 0.00 0.00 64 1016.2
20260506174015 64 277 0.0 0.0 0.00 0.00 0.00 65 1016.1
20260506173515 64 288 0.0 0.0 0.00 0.00 0.00 64 1016.0
20260506173014 64 306 0.0 0.0 0.00 0.00 0.00 65 1015.9
20260506172514 64 277 0.0 0.0 0.00 0.00 0.00 65 1015.8
20260506172014 64 303 0.0 0.0 0.00 0.00 0.00 64 1015.5
20260506171513 64 266 0.0 0.0 0.00 0.00 0.00 65 1015.2
20260506171013 64 259 0.0 0.0 0.00 0.00 0.00 66 1015.0
20260506170511 63 259 0.0 0.0 0.00 0.00 0.00 66 1014.9
20260506170011 63 304 0.0 0.0 0.00 0.00 0.00 66 1014.9
20260506165513 63 296 0.0 0.0 0.00 0.00 0.00 67 1015.0
20260506165010 63 287 0.0 0.0 0.00 0.00 0.00 66 1015.0
20260506164509 63 252 0.0 0.0 0.00 0.00 0.00 67 1015.1
20260506164009 62 307 0.0 0.0 0.00 0.00 0.00 67 1015.2
20260506163507 62 279 0.0 0.0 0.00 0.00 0.00 67 1015.2
20260506163009 62 312 0.0 0.0 0.00 0.00 0.00 67 1015.4
20260506162508 62 300 0.0 0.0 0.00 0.00 0.00 67 1015.7
20260506162005 62 289 0.0 0.0 0.00 0.00 0.00 67 1015.4
20260506161506 62 242 0.0 0.0 0.00 0.00 0.00 67 1015.8
20260506161004 62 263 0.0 0.0 0.00 0.00 0.00 67 1015.9
20260506160507 61 292 0.0 0.0 0.00 0.00 0.00 67 1016.1
20260506160010 61 281 0.0 0.0 0.00 0.00 0.00 67 1016.2
20260506155503 61 254 0.0 0.0 0.00 0.00 0.00 67 1016.1
20260506155002 61 279 0.0 0.0 0.00 0.00 0.00 67 1016.1
20260506154503 61 258 0.0 0.0 0.00 0.00 0.00 67 1016.0
20260506154005 61 289 0.0 0.0 0.00 0.00 0.00 67 1015.8
20260506153502 61 237 0.0 0.0 0.00 0.00 0.00 67 1015.8
20260506153002 61 294 0.0 0.0 0.00 0.00 0.00 67 1015.9
20260506152600 61 223 0.0 0.0 0.00 0.00 0.00 67 1015.8
20260506152100 61 277 0.0 0.0 0.00 0.00 0.00 67 1015.7
20260506151601 61 302 0.0 0.0 0.00 0.00 0.00 67 1015.7
20260506151059 61 294 0.0 0.0 0.00 0.00 0.00 67 1015.6
20260506150559 61 304 0.0 0.0 0.00 0.00 0.00 67 1015.6
20260506145556 60 306 0.0 0.0 0.00 0.00 0.00 67 1015.9
20260506145056 60 261 0.0 0.0 0.00 0.00 0.00 67 1015.6
20260506144557 60 279 0.0 0.0 0.00 0.00 0.00 67 1015.7
20260506144056 60 309 0.0 0.0 0.00 0.00 0.00 67 1015.6
20260506143555 60 301 0.0 0.0 0.00 0.00 0.00 67 1015.7
20260506143105 60 308 0.0 0.0 0.00 0.00 0.00 67 1015.6
20260506142554 60 299 0.0 0.0 0.00 0.00 0.00 67 1015.6
20260506142052 60 259 0.0 0.0 0.00 0.00 0.00 67 1015.5
20260506141552 60 296 0.0 0.0 0.00 0.00 0.00 67 1015.4
20260506141055 59 255 0.0 0.0 0.00 0.00 0.00 67 1015.3
20260506140551 59 284 0.0 0.0 0.00 0.00 0.00 67 1015.2
20260506140054 59 308 0.0 0.0 0.00 0.00 0.00 67 1015.3
20260506135551 59 268 0.0 0.0 0.00 0.00 0.00 67 1015.3
20260506135049 59 306 0.0 0.0 0.00 0.00 0.00 67 1015.1
20260506134550 59 253 0.0 0.0 0.00 0.00 0.00 67 1015.1
20260506134049 59 236 0.0 0.0 0.00 0.00 0.00 67 1015.1
20260506133549 59 259 0.0 0.0 0.00 0.00 0.00 67 1015.0
20260506133049 59 244 0.0 0.0 0.00 0.00 0.00 67 1015.1
20260506132548 59 283 0.0 0.0 0.00 0.00 0.00 67 1015.0
20260506132048 59 279 0.0 0.0 0.00 0.00 0.00 67 1015.0
20260506131548 59 348 0.0 0.0 0.00 0.00 0.00 67 1014.8
20260506131047 59 261 0.0 0.0 0.00 0.00 0.00 67 1014.9
20260506130548 59 281 0.0 0.0 0.00 0.00 0.00 67 1014.8
20260506130047 59 290 0.0 0.0 0.00 0.00 0.00 67 1014.8
20260506125549 59 268 0.0 0.0 0.00 0.00 0.00 67 1014.8
20260506125050 59 238 0.0 0.0 0.00 0.00 0.00 67 1014.6
20260506124545 59 288 0.0 0.0 0.00 0.00 0.00 67 1014.6
20260506124045 59 272 0.0 0.0 0.00 0.00 0.00 67 1014.6
20260506123545 59 272 0.0 0.0 0.00 0.00 0.00 67 1014.5
20260506123044 59 281 0.0 0.0 0.00 0.00 0.00 67 1014.6
20260506122544 59 273 0.0 0.0 0.00 0.00 0.00 67 1014.6
20260506122044 59 250 0.0 0.0 0.00 0.00 0.00 67 1014.6
20260506121545 59 284 0.0 0.0 0.00 0.00 0.00 66 1014.5
20260506121044 59 260 0.0 0.0 0.00 0.00 0.00 67 1014.4
20260506120542 59 253 0.0 0.0 0.00 0.00 0.00 67 1014.5
20260506120045 59 252 0.0 0.0 0.00 0.00 0.00 67 1014.5
20260506115542 59 265 0.0 0.0 0.00 0.00 0.00 67 1014.4
20260506115042 59 271 0.0 0.0 0.00 0.00 0.00 67 1014.3
20260506114549 59 288 0.0 0.0 0.00 0.00 0.00 67 1014.3
20260506114044 59 293 0.0 0.0 0.00 0.00 0.00 67 1014.2
20260506113543 59 247 0.0 0.0 0.00 0.00 0.00 67 1014.2
20260506113041 59 297 0.0 0.0 0.00 0.00 0.00 67 1014.1
20260506112542 59 255 0.0 0.0 0.00 0.00 0.00 67 1014.2
20260506112038 59 223 0.0 0.0 0.00 0.00 0.00 67 1014.0
20260506111541 59 291 0.0 0.0 0.00 0.00 0.00 67 1014.1
20260506111038 59 279 0.0 0.0 0.00 0.00 0.00 67 1013.9
20260506110537 59 289 0.0 0.0 0.00 0.00 0.00 66 1013.9
20260506110037 59 313 0.0 0.0 0.00 0.00 0.00 67 1013.8
20260506105537 59 306 0.0 0.0 0.00 0.00 0.00 66 1013.7